This demonstration page uses our WeatherBlox Daily Observations layout. Learn more.

Left ArrowRight Arrow

34.16533, -84.80231

Hourly Observations for August 12, 2018

Temp ( °F °C ) Dew Point ( °F °C ) Humidity (%) Winds ( mph kmh ) Pressure ( in mb ) Visibility ( mi km ) Precip ( " mm )
12:53 am 00:53 Clear 72 22.2 71 21.7 97 97 Calm 29.99 1016 10 16 0.00 0.00
1:53 am 01:53 Clear 71 21.7 71 21.7 100 100 Calm 29.98 1015 10 16 0.00 0.00
2:53 am 02:53 Clear 70 21.1 70 21.1 100 100 Calm 29.98 1015 8 13 0.00 0.00
3:53 am 03:53 Clear 70 21.1 70 21.1 100 100 Calm 29.98 1015 8 13 0.00 0.00
4:53 am 04:53 Clear with Mist and Fog 70 21.1 70 21.1 100 100 Calm 29.98 1015 6 10 0.00 0.00
5:53 am 05:53 Clear with Mist and Fog 69 20.6 69 20.6 100 100 Calm 29.98 1015 6 10 0.00 0.00
6:53 am 06:53 Clear with Mist and Fog 68 20 68 20 100 100 Calm 30.00 1016 6 10 0.00 0.00
7:53 am 07:53 Sunny with Mist and Fog 70 21.1 70 21.1 100 100 Calm 30.02 1017 6 10 0.00 0.00
8:53 am 08:53 Sunny 74 23.3 72 22.2 94 94 Calm 30.03 1017 7 11 0.00 0.00
9:53 am 09:53 Sunny 76 24.4 72 22.2 88 88 Calm 30.04 1017 9 14 0.00 0.00
10:53 am 10:53 Sunny 78 25.6 73 22.8 85 85 Calm 30.05 1018 9 14 0.00 0.00
11:53 am 11:53 Sunny 84 28.9 73 22.8 70 70 Calm 30.04 1017 10 16 0.00 0.00
12:53 pm 12:53 Sunny 86 30 74 23.3 67 67 VRB 6 9 30.04 1017 10 16 0.00 0.00
1:53 pm 13:53 Mostly Sunny 87 30.6 73 22.8 63 63 Calm 30.02 1017 10 16 0.00 0.00
2:53 pm 14:53 Mostly Sunny 87 30.6 73 22.8 63 63 Calm 30.00 1016 10 16 0.00 0.00
3:53 pm 15:53 Partly Cloudy 89 31.7 72 22.2 57 57 VRB 7 11 29.98 1015 10 16 0.00 0.00
4:53 pm 16:53 Mostly Sunny 88 31.1 70 21.1 55 55 VRB 5 7 29.97 1015 10 16 0.00 0.00
5:53 pm 17:53 Sunny 88 31.1 66 18.9 48 48 NNW 6 9 29.96 1015 10 16 0.00 0.00
6:53 pm 18:53 Sunny 86 30 67 19.4 53 53 NNW 5 7 29.96 1015 10 16 0.00 0.00
7:53 pm 19:53 Sunny 81 27.2 72 22.2 74 74 Calm 29.97 1015 10 16 0.00 0.00
8:53 pm 20:53 Clear 73 22.8 72 22.2 96 96 Calm 29.99 1016 9 14 0.00 0.00
9:53 pm 21:53 Clear 72 22.2 72 22.2 100 100 Calm 30.01 1016 9 14 0.00 0.00
10:53 pm 22:53 Clear 72 22.2 72 22.2 100 100 Calm 30.03 1017 8 13 0.00 0.00
11:53 pm 23:53 Clear 70 21.1 70 21.1 100 100 Calm 30.03 1017 7 11 0.00 0.00

Powered by AerisWeather